Regional Weather Roundup
Issued by NWS Upton, NY

Current Version | Previous Version | Graphics & Text | Print | Product List | Glossary Off
Versions: 1 2 3 4 5 6 7 8 9 10 11 12 13 14 15 16 17 18 19 20 21 22 23 24 25 26 27

000
ASUS41 KOKX 181208
RWROKX

REGIONAL WEATHER ROUNDUP
NATIONAL WEATHER SERVICE NEW YORK NY
700 AM EST SAT FEB 18 2017

NOTE: "FAIR" INDICATES FEW OR NO CLOUDS BELOW 12,000 FEET WITH NO
SIGNIFICANT WEATHER AND/OR OBSTRUCTIONS TO VISIBILITY.

NYZ071-072-176-178-NJZ106-104-181300-
NEW YORK CITY METRO AREA

CITY           SKY/WX    TMP DP  RH WIND       PRES   REMARKS
Central Park   CLEAR     38  19  46 VRB6      29.87F WCI  33
Wall St Helipt NOT AVBL
LaGuardia APRT PTCLDY    38  20  48 S6        29.85F WCI  33
Kennedy INTL   PTCLDY    33  26  75 SW8       29.87F WCI  26
Breezy Point     N/A     34 N/A N/A SW6         N/A  WCI  29
Newark/Liberty CLEAR     31  21  66 SW5       29.86F WCI  26
Teterboro      CLEAR     31  22  69 VRB3      29.86S
$$

NYZ177-179-078>081-181300-
LONG ISLAND NEW YORK

CITY           SKY/WX    TMP DP  RH WIND       PRES   REMARKS
Jones Beach      N/A     37 N/A N/A SW7         N/A  WCI  32
Matinecock PT  NOT AVBL
Farmingdale    CLEAR     27  20  75 CALM      29.87S
MacArthur/ISP  PTCLDY    29  19  66 CALM      29.86F
Shirley        CLOUDY    23  18  81 CALM      29.87F
Westhampton    CLEAR     19  14  81 CALM      29.89F
Southampton    NOT AVBL
Bridgehampton  NOT AVBL
East Hampton     N/A     20  17  90 CALM      29.87S
Montauk          N/A     34  26  72 SW3       29.87
$$

NYZ052-065-067-181300-
HUDSON VALLEY

CITY           SKY/WX    TMP DP  RH WIND       PRES   REMARKS
White Plains   CLOUDY    31  18  58 CALM      29.83S
Newburgh       CLEAR     21  18  86 CALM      29.83S
Montgomery     CLOUDY    20  14  77 CALM      29.81S
Poughkeepsie   CLOUDY    22  18  85 CALM      29.83S
Albany         CLOUDY    21  14  74 S3        29.79S
$$

NJZ001-105-106-008-010-013-015-019>022-104-181300-
NEW JERSEY

CITY           SKY/WX    TMP DP  RH WIND       PRES   REMARKS
Newark/Liberty CLEAR     31  21  66 SW5       29.86F WCI  26
Teterboro      CLEAR     31  22  69 VRB3      29.86S
Caldwell       CLOUDY    25  19  78 CALM      29.86F
Somerville     CLOUDY    22  18  85 CALM      29.85F
Linden         NOT AVBL
Sussex         CLOUDY    23  18  81 SW3       29.82S
Andover          N/A     21  18  88 CALM      29.83S
Trenton        CLOUDY    27  20  75 CALM      29.85F
Millville      CLOUDY    24  21  88 CALM      29.87S
Atlantic City  CLOUDY    28  21  75 CALM      29.87F
Wrightstown    CLOUDY    24  20  83 CALM      29.84F
Toms River     CLOUDY    22  18  85 CALM      29.87F
Belmar         CLOUDY    30  19  63 S5        29.87F WCI  25
$$

PAZ047>061-062-071-181300-
EASTERN PENNSYLVANIA

CITY           SKY/WX    TMP DP  RH WIND       PRES   REMARKS
Philadelphia   PTCLDY    30  23  75 CALM      29.88S
Allentown      CLOUDY    24  19  81 CALM      29.85S
Scranton       CLOUDY    28  19  69 CALM      29.79S
$$

CTZ002-004>006-009-010-012-RIZ004-006-007-MAZ004-011-015-181300-
SOUTHERN NEW ENGLAND
 IN CT

CITY           SKY/WX    TMP DP  RH WIND       PRES   REMARKS
Bradley INTL   CLOUDY    21  15  78 SE6       29.83S WCI  13
Hartford       CLOUDY    23  17  78 S6        29.85S WCI  16
Danbury        CLOUDY    20  16  84 CALM      29.85S
Wtrbury/Oxford CLEAR     28  14  54 CALM      29.81F
Bridgeport     CLOUDY    28  19  69 CALM      29.86F
Meriden        CLOUDY    20  15  81 CALM      29.85F
New Haven      CLOUDY    23  19  85 CALM      29.85F
Chester          N/A     30  18  59 SW3       29.84S
Groton         CLOUDY    23  18  81 NE3       29.86S
Wilimantic     CLOUDY    19  14  81 CALM      29.86R

 IN RI

CITY           SKY/WX    TMP DP  RH WIND       PRES   REMARKS
Providence     CLOUDY    24  15  68 SW3       29.85S
Block Island   CLEAR     34  24  67 SW12      29.87R WCI  25
Westerly       PTCLDY    23  14  68 CALM      29.88R
 IN MA

CITY           SKY/WX    TMP DP  RH WIND       PRES   REMARKS
Boston         CLOUDY    27  17  66 SW8       29.82R WCI  19
Worcester      PTCLDY    25  14  63 SW9       29.77S WCI  15
Westfield      CLOUDY    22  15  75 SW3       29.81F
Provincetown   CLEAR     31  23  72 W8        29.84R WCI  23
Nantucket      CLEAR     29  21  72 W3        29.86R
$$

ANZ330-335-338-340-345-350-353-355-181300-
COASTAL MARINE OBSERVATIONS


STATION/POSITION TIME  SKY/WX   TEMP    WIND        PRES    VSBY  WAVE
                                AIR SEA DIR/SP/G                  HT/PER
                 (UTC)          (F)     (DEG/KT/KT) (MB)    (MI)  (FT/S)
NY HARB ENTRANCE 1050            39 41  230/ 10/ 12 1011.4          1/10
20 S FIRE ISLAND 1150            40 41  220/ 10/ 12 1011.7          1/ 9
GREAT SOUTH BAY  NOT AVBL
23 SSW MONTAUK P 1050            39 45              1012.4          2/ 6
15 E BARNEGAT LI 1130               42                N/A           1/ 9
HUDSON CANYON    1050               50              1012.4          2/ 4
KINGS POINT      1136            35 36              1010.9
EXECUTION ROCKS  NOT AVBL
CENTRAL LI SOUND 1130            36     210/ 10/ 10   N/A           1
EASTERN LI SOUND NOT AVBL
ROBBINS REEF     1136            35      CALM  /  1 1011.5
$$


>>>>>>>>>>>>>>>>>>>>>>>>>>>> KEY <<<<<<<<<<<<<<<<<<<<<<<<<<<
>                                                          <
>     SKY/WX - Sky Condition/Present Weather               <
>     TMP    - Temperature in Fahrenheit                   <
>     DP     - Dew Point in Fahrenheit                     <
>     RH     - Relative Humidity in Percent                <
>     WIND   - Direction (from) and Speed in MPH           <
>     PRES   - Mean Sea Level Pressure (inches of Hg)      <
>     WCI    - Wind Chill Index                            <
>     VSB    - VISIBILITY IN MILES                         <
>     HX     - HEAT INDEX                                  <
>     TC     - TEMPERATURE IN CELSIUS                      <
>     VRB    - VARIABLE WIND DIRECTION                     <
>                                                          <
>>>>>>>>>>>>>>>>>>>>>>>>>>>> KEY <<<<<<<<<<<<<<<<<<<<<<<<<<<




USA.gov is the U.S. government's official web portal to all federal, state and local government web resources and services.